Regional Weather Roundup
Issued by NWS

Home | Current Version | Previous Version | Graphics & Text | Print | Product List | Glossary On
Versions: 1 2 3 4 5 6 7 8 9 10 11 12 13 14 15 16 17 18 19 20 21 22 23 24 25 26 27 28 29 30 31 32 33 34 35 36 37 38 39 40 41 42 43 44 45 46 47 48 49 50
000
ASUS43 KIND 161259
RWRIN

WEATHER ROUNDUP FOR INDIANA
NATIONAL WEATHER SERVICE INDIANAPOLIS IN
800 AM EST TUE JAN 16 2018

NOTE: "FAIR" INDICATES FEW OR NO CLOUDS BELOW 12,000 FEET WITH NO
SIGNIFICANT WEATHER AND/OR OBSTRUCTIONS TO VISIBILITY.

* - STATION DOES NOT REPORT WEATHER SUCH AS PRECIPITATION OR FOG.

+ - STATION NOT QUALITY CONTROLLED BY THE NATIONAL WEATHER SERVICE.
    USE DATA WITH CAUTION...ESPECIALLY DEWPOINT AND RELATIVE
    HUMIDITY OBSERVATIONS.

INZ001>003-010>013-019-020-161400-
NORTHWEST INDIANA

CITY           SKY/WX    TMP DP  RH WIND       PRES   REMARKS
GARY /AIRPORT/ LGT SNOW   7   1  78 SW14      30.42R WCI -10
KNOX *+        CLOUDY     1  -4  78 SW13      30.43R WCI -16
MONTICELLO +   FLURRIES   0  -6  76 SW10      30.46S WCI -16

$$

LMZ046-743>745-161400-
SOUTHERN LAKE MICHIGAN

STATION/POSITION TIME  TEMP    WIND        PRES    WAVE
                       AIR SEA DIR/SP/G            HT
                 (UTC) (F)     (DEG/KT/KT) (MB)    (FT)
BURNS HARBOR     1240    5     210/ 11/ 14 1029.8R
MICHIGAN CITY    1230          180/ 11/ 13   N/A

$$

INZ004-005-014>016-021>024-161400-
NORTH CENTRAL INDIANA

CITY           SKY/WX    TMP DP  RH WIND       PRES   REMARKS
GOSHEN         MOCLDY    -1  -6  79 SW9       30.41R WCI -16
SOUTH BEND     CLOUDY    -1  -5  82 SW10      30.41R WCI -17

$$

INZ006>009-017-018-025>027-161400-
NORTHEAST INDIANA

CITY           SKY/WX    TMP DP  RH WIND       PRES   REMARKS
FORT WAYNE     MOCLDY    -3  -7  82 SW8       30.44R WCI -18
KENDALLVILLE + FLURRIES  -2  -6  85 SW5       30.40R WCI -13

$$

INZ028-029-035-036-043>045-051>053-161400-
WEST CENTRAL INDIANA

CITY           SKY/WX    TMP DP  RH WIND       PRES   REMARKS
GREENCASTLE +  FAIR      -4  -9  77 CALM      30.52R
LAFAYETTE      CLOUDY    -2  -6  83 W10       30.49R WCI -19
TERRE HAUTE    FAIR      -7 -13  75 W7        30.57R WCI -21

$$

INZ030>032-037>040-046>048-054>057-064-065-161400-
CENTRAL INDIANA

CITY           SKY/WX    TMP DP  RH WIND       PRES   REMARKS
COLUMBUS       MOCLDY     0  -8  71 W9        30.56R WCI -16
INDIANAPOLIS   FAIR      -4  -8  83 SW12      30.51R WCI -22
-EAGLE CREEK   FAIR      -3  -9  75 SW5       30.49R WCI -13
MT COMFORT *+  FAIR      -4  -6  92 SW7       30.49R WCI -18
SHELBYVILLE    FAIR      -3  -9  75 SW9       30.51R WCI -19

$$

INZ033-034-041-042-049-050-058-059-161400-
EAST CENTRAL INDIANA

CITY           SKY/WX    TMP DP  RH WIND       PRES   REMARKS
MUNCIE         FAIR       0  -6  76 SW9       30.46R WCI -15
RICHMOND +     FAIR       0  -4  85 W10       30.45R WCI -17

$$

INZ060-061-067>069-081>083-085>088-161400-
SOUTHWEST INDIANA

CITY           SKY/WX    TMP DP  RH WIND       PRES   REMARKS
EVANSVILLE     FAIR       3  -5  69 NW7       30.64R WCI  -9
HUNTINGBURG +  FAIR       3  -4  72 NW8       30.62R WCI -10

$$

INZ062-063-066-070>080-084-089>092-161400-
SOUTH CENTRAL AND SOUTHEAST INDIANA

CITY           SKY/WX    TMP DP  RH WIND       PRES   REMARKS
BLOOMINGTON    FAIR      -5  -9  83 W5        30.54R WCI -16
MADISON *+     FAIR       7   0  72 NW5       30.54S WCI  -2
SEYMOUR +      FAIR       5  -4  66 W14       30.57R WCI -12

$$





USA.gov is the U.S. government's official web portal to all federal, state and local government web resources and services.